Weather Roundup
Issued by NWS Springfield, MO

Home | Current Version | Previous Version | Text Only | Print | Product List | Glossary On
Versions: 1 2 3 4 5 6 7 8 9 10 11 12 13 14 15 16 17 18 19 20 21 22 23 24 25 26 27 28 29 30 31 32 33 34 35 36 37 38 39 40 41 42 43 44 45 46 47 48 49 50
100
NZUS99 KSGF 251507
HRRSGF

HOURLY WEATHER
NATIONAL WEATHER SERVICE SPRINGFIELD MO
1000 AM CDT WED APR 25 2018

......SGF CWA......

CITY           SKY/WX    TMP DP  RH WIND       PRES   REMARKS
SPRINGFIELD    LGT RAIN  54  48  80 W6        30.14R
JOPLIN         LGT RAIN  53  51  93 NE7       30.15F FOG
WEST PLAINS    CLOUDY    59  45  59 N6        30.07F
ROLLA          CLOUDY    58  44  60 N7        30.08F
OSAGE BEACH    CLOUDY    57  44  62 VRB6      30.11S
BRANSON        LGT RAIN  54  48  82 NW13G21   30.13R

......SURROUNDING SGF CWA......

CITY           SKY/WX    TMP DP  RH WIND       PRES   REMARKS
CHANUTE        CLOUDY    54  52  93 E3        30.13F
PARSONS        LGT RAIN  55  53  93 NE5       30.14F
COFFEYVILLE    CLOUDY    54  52  93 SE3       30.14F
EMPORIA        LGT RAIN  50  48  93 N8        30.15F FOG
GROVE OK       LGT RAIN  54  52  94 SW5       30.18S
ROGERS AR      RAIN      52  50  93 NW5       30.17R
SILOAM SPRINGS LGT RAIN  52  51  97 NW10      30.19S FOG
HARRISON AR    CLOUDY    55  46  71 NW10      30.14R
NEAR YELLVILLE PTSUNNY   57  45  64 NW6       30.10S

......KANSAS AND MISSOURI......

CITY           SKY/WX    TMP DP  RH WIND       PRES   REMARKS
KANSAS CTY INT LGT RAIN  49  47  93 N12       30.17R FOG
DOWNTOWN KC    LGT RAIN  52  45  77 N7        30.16R
COLUMBIA       CLOUDY    57  40  52 N10       30.09F
SEDALIA        CLOUDY    57  45  64 NW9       30.14R
ST JOSEPH      LGT RAIN  48  48 100 N12       30.20R
ST LOUIS       CLOUDY    60  46  59 N9        30.07R
SPIRIT OF STL  CLOUDY    61  46  57 N8        30.06R
KIRKSVILLE     CLOUDY    52  41  66 N10       30.14S
WICHITA        CLOUDY    47  44  90 NW15      30.21R
TOPEKA         CLOUDY    49  48  97 N9        30.16F
OLATHE         CLOUDY    50  47  89 N10       30.15S

......TENNESSEE......

CITY           SKY/WX    TMP DP  RH WIND       PRES   REMARKS
MEMPHIS        FAIR      68  59  73 NW9       30.05R
NASHVILLE      CLOUDY    61  52  72 N12       30.02R

......ARKANSAS.......

CITY           SKY/WX    TMP DP  RH WIND       PRES   REMARKS
FAYETTEVILLE   LGT RAIN  52  49  89 NW7       30.15R
FT SMITH       LGT RAIN  56  52  86 W6        30.14R
LITTLE ROCK    PTSUNNY   70  58  65 SW9       30.07R

......OKLAHOMA.......

CITY           SKY/WX    TMP DP  RH WIND       PRES   REMARKS
TULSA          LGT RAIN  54  51  90 W3        30.16F
PONCA CITY     CLOUDY    47  44  90 NW8       30.20S
MCALESTER      RAIN      52  50  93 N12       30.20R
OKLAHOMA CITY  LGT RAIN  45  44  97 N18       30.22F FOG

......IOWA............

CITY           SKY/WX    TMP DP  RH WIND       PRES   REMARKS
DES MOINES     CLOUDY    53  33  46 NE14      30.19S
QUAD CITIES    FAIR      55  35  47 NE10      30.13F

......ILLINOIS........

CITY           SKY/WX    TMP DP  RH WIND       PRES   REMARKS
QUINCY         CLOUDY    52  42  69 N9        30.12R
CHICAGO        FAIR      49  30  48 N18       30.12R





USA.gov is the U.S. government's official web portal to all federal, state and local government web resources and services.